Date String (YYYY-MM-DD hh:mm:ss) UTC,Instrument flags,absolute air pressure of the measurement (hPa),sample flow rate (lpm),inlet stack bypass flow (lpm),air temperature of the measurement (°C),ambient temperature measured by the external sensor (°C),aerosol sample conditioner tube jacket temperature (°C),OPC LED temperature (°C),internal box temperature (°C),relative humidity of the measurement (%),span deviation,mass concentration of particles derived from Lorenz-Mie calculation of OPC scattering (μg/m³),mass concentration of particles derived from Lorenz-Mie calculation of OPC scattering (μg/m³),mass concentration of particles derived from Lorenz-Mie calculation of OPC scattering (μg/m³)
DateTimeUTC,F1_M11,P_M11,Q1_M11,Q2_M11,T1_M11,T2_M11,T3_M11,T4_M11,T5_M11,U1_M11,ZSPAN_M11,X0_M11,X2_M11,X1_M11
2024-05-09 02:00:00,SystemResetWarning,0825.1,5.01,000.00,026.2,025.4,000.0,034.4,027.9,008.8,0000.0,0001.75,0000.48,0000.28
2024-05-09 02:01:00,SystemResetWarning,0825.1,5.00,000.00,026.2,025.4,000.0,034.4,027.9,009.0,0000.0,0001.69,0000.47,0000.28
2024-05-09 02:02:00,SystemResetWarning,0825.2,5.00,000.00,026.2,025.4,000.0,034.4,027.9,009.1,0000.0,0001.64,0000.49,0000.28
2024-05-09 02:03:00,SystemResetWarning,0825.2,5.01,000.00,026.2,025.4,000.0,034.4,027.9,009.0,0000.0,0001.65,0000.49,0000.28
2024-05-09 02:04:00,SystemResetWarning,0825.2,5.00,000.00,026.2,025.4,000.0,034.4,027.9,009.0,0000.0,0001.66,0000.51,0000.29
2024-05-09 02:05:00,SystemResetWarning,0825.2,5.00,000.00,026.2,025.4,000.0,034.4,027.9,009.0,0000.0,0001.69,0000.53,0000.29
2024-05-09 02:06:00,SystemResetWarning,0825.2,4.99,000.00,026.2,025.4,000.0,034.4,027.9,008.9,0000.0,0001.79,0000.55,0000.30
2024-05-09 02:07:00,SystemResetWarning,0825.2,4.99,000.00,026.2,025.4,000.0,034.4,027.9,008.9,0000.0,0001.74,0000.53,0000.30
2024-05-09 02:08:00,SystemResetWarning,0825.2,5.01,000.00,026.2,025.4,000.0,034.4,027.9,008.8,0000.0,0001.70,0000.51,0000.29
2024-05-09 02:09:00,SystemResetWarning,0825.2,5.01,000.00,026.1,025.4,000.0,034.4,027.9,008.8,0000.0,0001.70,0000.49,0000.29
2024-05-09 02:10:00,SystemResetWarning,0825.3,5.00,000.00,026.1,025.4,000.0,034.4,027.9,008.9,0000.0,0001.45,0000.51,0000.30
2024-05-09 02:11:00,SystemResetWarning,0825.2,5.01,000.00,026.1,025.4,000.0,034.4,027.8,008.9,0000.0,0001.04,0000.52,0000.30
2024-05-09 02:12:00,SystemResetWarning,0825.2,4.99,000.00,026.1,025.4,000.0,034.4,027.9,008.8,0000.0,0001.16,0000.53,0000.31
2024-05-09 02:13:00,SystemResetWarning,0825.2,4.99,000.00,026.1,025.4,000.0,034.4,027.9,008.8,0000.0,0001.13,0000.53,0000.31
2024-05-09 02:14:00,SystemResetWarning,0825.2,4.99,000.00,026.1,025.4,000.0,034.4,027.9,008.8,0000.0,0001.06,0000.49,0000.31
2024-05-09 02:15:00,SystemResetWarning,0825.2,5.00,000.00,026.1,025.4,000.0,034.4,027.9,008.8,0000.0,0001.03,0000.48,0000.30
2024-05-09 02:16:00,SystemResetWarning,0825.2,5.01,000.00,026.1,025.4,000.0,034.4,027.8,008.8,0000.0,0000.98,0000.45,0000.30
2024-05-09 02:17:00,SystemResetWarning,0825.3,5.01,000.00,026.1,025.3,000.0,034.4,027.8,008.8,0000.0,0000.92,0000.44,0000.30
2024-05-09 02:18:00,SystemResetWarning,0825.3,4.99,000.00,026.1,025.3,000.0,034.4,027.8,008.8,0000.0,0000.92,0000.44,0000.30
2024-05-09 02:19:00,SystemResetWarning,0825.2,4.99,000.00,026.1,025.3,000.0,034.3,027.8,008.8,0000.0,0000.92,0000.44,0000.30
2024-05-09 02:20:00,SystemResetWarning,0825.3,5.01,000.00,026.1,025.3,000.0,034.3,027.8,008.8,0000.0,0001.02,0000.48,0000.31
2024-05-09 02:21:00,SystemResetWarning,0825.3,5.01,000.00,026.1,025.3,000.0,034.3,027.8,008.8,0000.0,0001.08,0000.48,0000.32
2024-05-09 02:22:00,SystemResetWarning,0825.4,5.00,000.00,026.1,025.3,000.0,034.3,027.8,008.8,0000.0,0001.10,0000.47,0000.32
2024-05-09 02:23:00,SystemResetWarning,0825.3,4.99,000.00,026.1,025.3,000.0,034.3,027.8,008.8,0000.0,0001.19,0000.48,0000.31
2024-05-09 02:24:00,SystemResetWarning,0825.3,5.00,000.00,026.1,025.3,000.0,034.3,027.8,008.9,0000.0,0001.15,0000.47,0000.32
2024-05-09 02:25:00,SystemResetWarning,0825.4,5.01,000.00,026.1,025.3,000.0,034.3,027.8,008.9,0000.0,0001.22,0000.49,0000.32
2024-05-09 02:26:00,SystemResetWarning,0825.4,5.00,000.00,026.1,025.3,000.0,034.3,027.8,008.9,0000.0,0001.24,0000.50,0000.32
2024-05-09 02:27:00,SystemResetWarning,0825.4,5.00,000.00,026.0,025.3,000.0,034.3,027.8,008.9,0000.0,0001.24,0000.50,0000.32
2024-05-09 02:28:00,SystemResetWarning,0825.4,5.01,000.00,026.0,025.3,000.0,034.3,027.8,009.0,0000.0,0001.20,0000.50,0000.33
2024-05-09 02:29:00,SystemResetWarning,0825.4,5.00,000.00,026.0,025.3,000.0,034.3,027.7,009.1,0000.0,0001.18,0000.50,0000.32
2024-05-09 02:30:00,SystemResetWarning,0825.5,4.98,000.00,026.0,025.2,000.0,034.3,027.7,009.1,0000.0,0001.21,0000.50,0000.32
2024-05-09 02:31:00,SystemResetWarning,0825.5,5.00,000.00,026.0,025.2,000.0,034.3,027.7,009.1,0000.0,0001.11,0000.47,0000.33
2024-05-09 02:32:00,SystemResetWarning,0825.5,5.00,000.00,026.0,025.2,000.0,034.3,027.7,009.1,0000.0,0001.00,0000.45,0000.32
2024-05-09 02:33:00,SystemResetWarning,0825.5,5.01,000.00,026.0,025.2,000.0,034.3,027.7,009.0,0000.0,0001.35,0000.47,0000.33
2024-05-09 02:34:00,SystemResetWarning,0825.6,5.01,000.00,026.0,025.2,000.0,034.3,027.7,009.0,0000.0,0001.10,0000.44,0000.32
2024-05-09 02:35:00,SystemResetWarning,0825.5,4.99,000.00,026.0,025.2,000.0,034.3,027.7,009.0,0000.0,0001.11,0000.44,0000.32
2024-05-09 02:36:00,SystemResetWarning,0825.6,4.99,000.00,026.0,025.2,000.0,034.2,027.7,009.1,0000.0,0001.12,0000.45,0000.32
2024-05-09 02:37:00,SystemResetWarning,0825.6,5.00,000.00,026.0,025.2,000.0,034.2,027.7,009.0,0000.0,0001.16,0000.46,0000.33
2024-05-09 02:38:00,SystemResetWarning,0825.6,5.01,000.00,026.0,025.2,000.0,034.2,027.7,009.1,0000.0,0001.21,0000.48,0000.33
2024-05-09 02:39:00,SystemResetWarning,0825.6,5.01,000.00,026.0,025.2,000.0,034.2,027.7,009.1,0000.0,0001.23,0000.47,0000.32
2024-05-09 02:40:00,SystemResetWarning,0825.6,4.99,000.00,026.0,025.2,000.0,034.2,027.7,009.0,0000.0,0001.26,0000.49,0000.32
2024-05-09 02:41:00,SystemResetWarning,0825.6,5.00,000.00,026.0,025.2,000.0,034.2,027.7,009.1,0000.0,0001.39,0000.54,0000.32
2024-05-09 02:42:00,SystemResetWarning,0825.7,5.01,000.00,026.0,025.2,000.0,034.2,027.7,009.2,0000.0,0001.49,0000.56,0000.32
2024-05-09 02:43:00,SystemResetWarning,0825.7,5.01,000.00,026.0,025.2,000.0,034.2,027.7,009.2,0000.0,0001.60,0000.58,0000.31
2024-05-09 02:44:00,SystemResetWarning,0825.7,4.99,000.00,026.0,025.2,000.0,034.2,027.7,009.2,0000.0,0001.27,0000.58,0000.31
2024-05-09 02:45:00,SystemResetWarning,0825.7,4.99,000.00,026.0,025.2,000.0,034.2,027.7,009.2,0000.0,0001.23,0000.58,0000.32
2024-05-09 02:46:00,SystemResetWarning,0825.7,5.00,000.00,026.0,025.2,000.0,034.2,027.7,009.1,0000.0,0001.20,0000.57,0000.32
2024-05-09 02:47:00,SystemResetWarning,0825.7,5.01,000.00,025.9,025.2,000.0,034.2,027.7,009.1,0000.0,0001.15,0000.55,0000.32
2024-05-09 02:48:00,SystemResetWarning,0825.7,5.00,000.00,025.9,025.2,000.0,034.2,027.7,009.2,0000.0,0001.08,0000.53,0000.31
2024-05-09 02:49:00,SystemResetWarning,0825.7,5.00,000.00,025.9,025.1,000.0,034.2,027.6,009.2,0000.0,0001.06,0000.52,0000.31
2024-05-09 02:50:00,SystemResetWarning,0825.7,4.99,000.00,025.9,025.1,000.0,034.2,027.6,009.1,0000.0,0001.10,0000.55,0000.31
2024-05-09 02:51:00,SystemResetWarning,0825.7,4.99,000.00,025.9,025.1,000.0,034.2,027.6,009.1,0000.0,0001.10,0000.53,0000.32
2024-05-09 02:52:00,SystemResetWarning,0825.8,4.99,000.00,025.9,025.1,000.0,034.2,027.6,009.1,0000.0,0001.01,0000.49,0000.32
2024-05-09 02:53:00,SystemResetWarning,0825.8,5.00,000.00,025.9,025.1,000.0,034.2,027.6,009.2,0000.0,0000.96,0000.48,0000.33
2024-05-09 02:54:00,SystemResetWarning,0825.8,5.01,000.00,025.9,025.1,000.0,034.2,027.6,009.2,0000.0,0001.40,0000.48,0000.33
2024-05-09 02:55:00,SystemResetWarning,0825.8,5.01,000.00,025.9,025.1,000.0,034.2,027.6,009.2,0000.0,0002.03,0000.46,0000.33
2024-05-09 02:56:00,SystemResetWarning,0825.8,4.99,000.00,025.9,025.1,000.0,034.1,027.6,009.2,0000.0,0002.09,0000.48,0000.33
2024-05-09 02:57:00,SystemResetWarning,0825.8,4.99,000.00,025.9,025.1,000.0,034.1,027.6,009.1,0000.0,0002.19,0000.50,0000.33
2024-05-09 02:58:00,SystemResetWarning,0825.8,5.01,000.00,025.9,025.1,000.0,034.1,027.6,009.1,0000.0,0002.28,0000.52,0000.33
2024-05-09 02:59:00,SystemResetWarning,0825.9,5.01,000.00,025.8,025.1,000.0,034.1,027.6,009.1,0000.0,0002.34,0000.54,0000.33
